Hourly Data Report for September 15, 2017

All times are specified in Local Standard Time (LST). Add 1 hour to adjust for Daylight Saving Time where and when it is observed.

PETAWAWA AWOS 2
ONTARIO

45°57'00.000" N
77°19'00.000" W
130.10 m
6106396
71625
YWA

Download Data

Hourly Data (September 2017)
Hourly Data Report for September 15, 2017
Temp Definition
°C
Dew Point Temp Definition
°C
Rel Hum Definition
%
Wind Dir Definition
10's deg

Wind Spd Definition
km/h
Visibility Definition
km
Stn Press Definition
kPa
Hmdx Definition


Wind Chill Definition


Weather Definition


TIME
00:00
01:00 12.5 12.2 98 25 4 9.7 99.96     LegendNANA
02:00 12.1 11.7 97 28 4 1.1 99.98     LegendNANA
03:00
04:00 11.5 11.5 100 26 4 1.4 100.01     LegendNANA
05:00 12.4 12.4 100 29 7 1.1 100.10     LegendNANA
06:00 12.4 12.4 100   0 0.3 100.14     LegendNANA
07:00 12.7 12.7 100 27 4 0.3 100.19     LegendNANA
08:00 14.3 14.3 100   0 14.5 100.28     LegendNANA
09:00 15.3 14.9 98   0 4.8 100.31     LegendNANA
10:00 16.4 15.9 97 6 6 6.4 100.30     LegendNANA
11:00 17.5 16.1 92 7 6 4.8 100.29     LegendNANA
12:00 20.5 16.9 80 5 7 14.5 100.27 26   LegendNANA
13:00 22.3 17.3 73 7 7 14.5 100.24 28   LegendNANA
14:00 23.9 18.0 70 10 9 14.5 100.22 30   LegendNANA
15:00 24.6 18.2 68 10 7 14.5 100.22 31   LegendNANA
16:00 24.2 18.1 69 11 7 14.5 100.22 30   LegendNANA
17:00 23.3 18.5 74   0 14.5 100.23 30   LegendNANA
18:00 21.2 19.2 88   0 14.5 100.24 28   LegendNANA
19:00 18.4 17.1 92   0 14.5 100.26     LegendNANA
20:00 17.7 16.5 93   0 14.5 100.32     LegendNANA
21:00 15.9 15.2 96   0 12.9 100.37     LegendNANA
22:00 15.1 14.6 97   0 5.6 100.39     LegendNANA
23:00 14.3 13.6 96   0 14.5 100.45     LegendNANA

Notes on Data Quality.

Legend

  • E = Estimated
  • M = Missing
  • NA = Not Available
  • ‡ = Partner data that is not subject to review by the National Climate Archives
Date modified: